owner,sensor,date,latitude,longitude,vertical_datum,sea_water_practical_salinity,qcFlag 
NERRS,ioos:station:NOAA.NERRS:rkblhwq:1,2019-02-01T00:45:00Z,26.0257,-81.7332,1.32,31.1,1111122 
NERRS,ioos:station:NOAA.NERRS:rkblhwq:1,2019-02-01T01:45:00Z,26.0257,-81.7332,1.4,31.1,1111122 
NERRS,ioos:station:NOAA.NERRS:rkblhwq:1,2019-02-01T02:45:00Z,26.0257,-81.7332,1.45,31.4,1111122 
NERRS,ioos:station:NOAA.NERRS:rkblhwq:1,2019-02-01T03:45:00Z,26.0257,-81.7332,1.45,30.1,1111122 
NERRS,ioos:station:NOAA.NERRS:rkblhwq:1,2019-02-01T04:45:00Z,26.0257,-81.7332,1.38,30.4,1111122 
NERRS,ioos:station:NOAA.NERRS:rkblhwq:1,2019-02-01T05:45:00Z,26.0257,-81.7332,1.28,30.2,1111122 
NERRS,ioos:station:NOAA.NERRS:rkblhwq:1,2019-02-01T06:45:00Z,26.0257,-81.7332,1.17,30.0,1111122 
NERRS,ioos:station:NOAA.NERRS:rkblhwq:1,2019-02-01T07:45:00Z,26.0257,-81.7332,1.04,29.8,1111122 
NERRS,ioos:station:NOAA.NERRS:rkblhwq:1,2019-02-01T08:45:00Z,26.0257,-81.7332,0.92,30.0,1111122 
NERRS,ioos:station:NOAA.NERRS:rkblhwq:1,2019-02-01T09:45:00Z,26.0257,-81.7332,0.81,29.7,1111122 
NERRS,ioos:station:NOAA.NERRS:rkblhwq:1,2019-02-01T10:45:00Z,26.0257,-81.7332,0.73,29.4,1111122 
NERRS,ioos:station:NOAA.NERRS:rkblhwq:1,2019-02-01T11:45:00Z,26.0257,-81.7332,0.72,28.6,1111122 
NERRS,ioos:station:NOAA.NERRS:rkblhwq:1,2019-02-01T12:45:00Z,26.0257,-81.7332,0.82,29.6,1111122 
NERRS,ioos:station:NOAA.NERRS:rkblhwq:1,2019-02-01T13:45:00Z,26.0257,-81.7332,0.93,29.6,1111122 
NERRS,ioos:station:NOAA.NERRS:rkblhwq:1,2019-02-01T15:45:00Z,26.0257,-81.7332,1.21,30.9,1111122 
NERRS,ioos:station:NOAA.NERRS:rkblhwq:1,2019-02-01T17:45:00Z,26.0257,-81.7332,1.43,31.4,1111122 
NERRS,ioos:station:NOAA.NERRS:rkblhwq:1,2019-02-01T18:45:00Z,26.0257,-81.7332,1.45,31.4,1111122 
NERRS,ioos:station:NOAA.NERRS:rkblhwq:1,2019-02-01T19:45:00Z,26.0257,-81.7332,1.35,31.0,1111122 
NERRS,ioos:station:NOAA.NERRS:rkblhwq:1,2019-02-01T20:45:00Z,26.0257,-81.7332,1.26,31.3,1111122 
NERRS,ioos:station:NOAA.NERRS:rkblhwq:1,2019-02-01T21:45:00Z,26.0257,-81.7332,1.19,31.3,1111122 
NERRS,ioos:station:NOAA.NERRS:rkblhwq:1,2019-02-01T23:45:00Z,26.0257,-81.7332,1.26,31.1,1111122 
NERRS,ioos:station:NOAA.NERRS:rkblhwq:1,2019-02-02T00:45:00Z,26.0257,-81.7332,1.35,31.2,1111122 
NERRS,ioos:station:NOAA.NERRS:rkblhwq:1,2019-02-02T01:45:00Z,26.0257,-81.7332,1.45,31.2,1111122 
NERRS,ioos:station:NOAA.NERRS:rkblhwq:1,2019-02-02T02:45:00Z,26.0257,-81.7332,1.52,31.6,1111122 
NERRS,ioos:station:NOAA.NERRS:rkblhwq:1,2019-02-02T03:45:00Z,26.0257,-81.7332,1.57,31.8,1111122 
NERRS,ioos:station:NOAA.NERRS:rkblhwq:1,2019-02-02T04:45:00Z,26.0257,-81.7332,1.57,31.6,1111122 
NERRS,ioos:station:NOAA.NERRS:rkblhwq:1,2019-02-02T05:45:00Z,26.0257,-81.7332,1.49,30.9,1111122 
NERRS,ioos:station:NOAA.NERRS:rkblhwq:1,2019-02-02T06:45:00Z,26.0257,-81.7332,1.37,30.9,1111122 
NERRS,ioos:station:NOAA.NERRS:rkblhwq:1,2019-02-02T07:45:00Z,26.0257,-81.7332,1.23,30.6,1111122 
NERRS,ioos:station:NOAA.NERRS:rkblhwq:1,2019-02-02T08:45:00Z,26.0257,-81.7332,1.09,30.3,1111122 
NERRS,ioos:station:NOAA.NERRS:rkblhwq:1,2019-02-02T09:45:00Z,26.0257,-81.7332,0.95,30.3,1111122 
NERRS,ioos:station:NOAA.NERRS:rkblhwq:1,2019-02-02T10:45:00Z,26.0257,-81.7332,0.83,30.0,1111122 
NERRS,ioos:station:NOAA.NERRS:rkblhwq:1,2019-02-02T11:45:00Z,26.0257,-81.7332,0.73,30.0,1111122 
NERRS,ioos:station:NOAA.NERRS:rkblhwq:1,2019-02-02T12:45:00Z,26.0257,-81.7332,0.75,29.0,1111122 
NERRS,ioos:station:NOAA.NERRS:rkblhwq:1,2019-02-02T13:45:00Z,26.0257,-81.7332,0.85,29.9,1111122 
NERRS,ioos:station:NOAA.NERRS:rkblhwq:1,2019-02-02T14:45:00Z,26.0257,-81.7332,0.98,30.4,1111122 
NERRS,ioos:station:NOAA.NERRS:rkblhwq:1,2019-02-02T15:45:00Z,26.0257,-81.7332,1.12,31.0,1111122 
NERRS,ioos:station:NOAA.NERRS:rkblhwq:1,2019-02-02T16:45:00Z,26.0257,-81.7332,1.28,31.3,1111122 
NERRS,ioos:station:NOAA.NERRS:rkblhwq:1,2019-02-02T18:45:00Z,26.0257,-81.7332,1.48,31.6,1111122 
NERRS,ioos:station:NOAA.NERRS:rkblhwq:1,2019-02-02T19:45:00Z,26.0257,-81.7332,1.4,31.6,1111122 
NERRS,ioos:station:NOAA.NERRS:rkblhwq:1,2019-02-02T21:45:00Z,26.0257,-81.7332,1.2,31.4,1111122 
NERRS,ioos:station:NOAA.NERRS:rkblhwq:1,2019-02-02T22:45:00Z,26.0257,-81.7332,1.14,31.1,1111122 
NERRS,ioos:station:NOAA.NERRS:rkblhwq:1,2019-02-03T00:45:00Z,26.0257,-81.7332,1.22,31.2,1111122 
NERRS,ioos:station:NOAA.NERRS:rkblhwq:1,2019-02-03T01:45:00Z,26.0257,-81.7332,1.33,31.4,1111122 
NERRS,ioos:station:NOAA.NERRS:rkblhwq:1,2019-02-03T02:45:00Z,26.0257,-81.7332,1.45,31.6,1111122 
NERRS,ioos:station:NOAA.NERRS:rkblhwq:1,2019-02-03T03:45:00Z,26.0257,-81.7332,1.54,31.9,1111122 
NERRS,ioos:station:NOAA.NERRS:rkblhwq:1,2019-02-03T04:45:00Z,26.0257,-81.7332,1.6,32.2,1111122 
NERRS,ioos:station:NOAA.NERRS:rkblhwq:1,2019-02-03T05:45:00Z,26.0257,-81.7332,1.59,31.8,1111122 
NERRS,ioos:station:NOAA.NERRS:rkblhwq:1,2019-02-03T06:45:00Z,26.0257,-81.7332,1.5,31.7,1111122 
NERRS,ioos:station:NOAA.NERRS:rkblhwq:1,2019-02-03T07:45:00Z,26.0257,-81.7332,1.35,31.7,1111122 
NERRS,ioos:station:NOAA.NERRS:rkblhwq:1,2019-02-03T08:45:00Z,26.0257,-81.7332,1.2,30.9,1111122 
NERRS,ioos:station:NOAA.NERRS:rkblhwq:1,2019-02-03T09:45:00Z,26.0257,-81.7332,1.05,30.5,1111122 
NERRS,ioos:station:NOAA.NERRS:rkblhwq:1,2019-02-03T10:45:00Z,26.0257,-81.7332,0.91,30.5,1111122 
NERRS,ioos:station:NOAA.NERRS:rkblhwq:1,2019-02-03T11:45:00Z,26.0257,-81.7332,0.79,30.2,1111122 
NERRS,ioos:station:NOAA.NERRS:rkblhwq:1,2019-02-03T12:45:00Z,26.0257,-81.7332,0.72,30.3,1111122 
NERRS,ioos:station:NOAA.NERRS:rkblhwq:1,2019-02-03T13:45:00Z,26.0257,-81.7332,0.78,29.7,1111122 
NERRS,ioos:station:NOAA.NERRS:rkblhwq:1,2019-02-03T14:45:00Z,26.0257,-81.7332,0.9,30.6,1111122 
NERRS,ioos:station:NOAA.NERRS:rkblhwq:1,2019-02-03T15:45:00Z,26.0257,-81.7332,1.04,31.3,1111122 
NERRS,ioos:station:NOAA.NERRS:rkblhwq:1,2019-02-03T16:45:00Z,26.0257,-81.7332,1.2,31.4,1111122 
NERRS,ioos:station:NOAA.NERRS:rkblhwq:1,2019-02-03T18:45:00Z,26.0257,-81.7332,1.44,31.9,1111122 
NERRS,ioos:station:NOAA.NERRS:rkblhwq:1,2019-02-03T19:45:00Z,26.0257,-81.7332,1.4,31.8,1111122 
NERRS,ioos:station:NOAA.NERRS:rkblhwq:1,2019-02-03T20:45:00Z,26.0257,-81.7332,1.29,31.9,1111122 
NERRS,ioos:station:NOAA.NERRS:rkblhwq:1,2019-02-03T21:45:00Z,26.0257,-81.7332,1.2,31.6,1111122 
NERRS,ioos:station:NOAA.NERRS:rkblhwq:1,2019-02-03T22:45:00Z,26.0257,-81.7332,1.11,31.5,1111122 
NERRS,ioos:station:NOAA.NERRS:rkblhwq:1,2019-02-03T23:45:00Z,26.0257,-81.7332,1.05,31.4,1111122 
NERRS,ioos:station:NOAA.NERRS:rkblhwq:1,2019-02-04T00:45:00Z,26.0257,-81.7332,1.07,31.3,1111122 
NERRS,ioos:station:NOAA.NERRS:rkblhwq:1,2019-02-04T01:45:00Z,26.0257,-81.7332,1.17,31.5,1111122 
NERRS,ioos:station:NOAA.NERRS:rkblhwq:1,2019-02-04T02:45:00Z,26.0257,-81.7332,1.31,31.6,1111122 
NERRS,ioos:station:NOAA.NERRS:rkblhwq:1,2019-02-04T03:45:00Z,26.0257,-81.7332,1.44,31.8,1111122 
NERRS,ioos:station:NOAA.NERRS:rkblhwq:1,2019-02-04T04:45:00Z,26.0257,-81.7332,1.55,32.0,1111122 
NERRS,ioos:station:NOAA.NERRS:rkblhwq:1,2019-02-04T05:45:00Z,26.0257,-81.7332,1.6,32.3,1111122 
NERRS,ioos:station:NOAA.NERRS:rkblhwq:1,2019-02-04T06:45:00Z,26.0257,-81.7332,1.57,31.9,1111122 
NERRS,ioos:station:NOAA.NERRS:rkblhwq:1,2019-02-04T07:45:00Z,26.0257,-81.7332,1.44,31.9,1111122 
NERRS,ioos:station:NOAA.NERRS:rkblhwq:1,2019-02-04T08:45:00Z,26.0257,-81.7332,1.3,31.1,1111122 
NERRS,ioos:station:NOAA.NERRS:rkblhwq:1,2019-02-04T09:45:00Z,26.0257,-81.7332,1.14,31.0,1111122 
NERRS,ioos:station:NOAA.NERRS:rkblhwq:1,2019-02-04T10:45:00Z,26.0257,-81.7332,0.99,30.8,1111122 
NERRS,ioos:station:NOAA.NERRS:rkblhwq:1,2019-02-04T11:45:00Z,26.0257,-81.7332,0.86,30.7,1111122 
NERRS,ioos:station:NOAA.NERRS:rkblhwq:1,2019-02-04T12:45:00Z,26.0257,-81.7332,0.75,30.6,1111122 
NERRS,ioos:station:NOAA.NERRS:rkblhwq:1,2019-02-04T13:45:00Z,26.0257,-81.7332,0.72,30.4,1111122 
NERRS,ioos:station:NOAA.NERRS:rkblhwq:1,2019-02-04T14:45:00Z,26.0257,-81.7332,0.81,30.3,1111122 
NERRS,ioos:station:NOAA.NERRS:rkblhwq:1,2019-02-04T15:45:00Z,26.0257,-81.7332,0.94,30.8,1111122 
NERRS,ioos:station:NOAA.NERRS:rkblhwq:1,2019-02-04T16:45:00Z,26.0257,-81.7332,1.1,31.6,1111122 
NERRS,ioos:station:NOAA.NERRS:rkblhwq:1,2019-02-04T18:45:00Z,26.0257,-81.7332,1.39,32.0,1111122 
NERRS,ioos:station:NOAA.NERRS:rkblhwq:1,2019-02-04T19:45:00Z,26.0257,-81.7332,1.43,31.9,1111122 
NERRS,ioos:station:NOAA.NERRS:rkblhwq:1,2019-02-04T21:45:00Z,26.0257,-81.7332,1.26,31.8,1111122 
NERRS,ioos:station:NOAA.NERRS:rkblhwq:1,2019-02-04T22:45:00Z,26.0257,-81.7332,1.17,31.7,1111122 
NERRS,ioos:station:NOAA.NERRS:rkblhwq:1,2019-02-04T23:45:00Z,26.0257,-81.7332,1.09,31.6,1111122 
NERRS,ioos:station:NOAA.NERRS:rkblhwq:1,2019-02-05T00:45:00Z,26.0257,-81.7332,1.05,31.4,1111122 
NERRS,ioos:station:NOAA.NERRS:rkblhwq:1,2019-02-05T01:45:00Z,26.0257,-81.7332,1.12,31.6,1111122 
NERRS,ioos:station:NOAA.NERRS:rkblhwq:1,2019-02-05T02:45:00Z,26.0257,-81.7332,1.23,31.6,1111122 
NERRS,ioos:station:NOAA.NERRS:rkblhwq:1,2019-02-05T03:45:00Z,26.0257,-81.7332,1.37,31.9,1111122 
NERRS,ioos:station:NOAA.NERRS:rkblhwq:1,2019-02-05T04:45:00Z,26.0257,-81.7332,1.49,32.1,1111122 
NERRS,ioos:station:NOAA.NERRS:rkblhwq:1,2019-02-05T05:45:00Z,26.0257,-81.7332,1.58,32.1,1111122 
NERRS,ioos:station:NOAA.NERRS:rkblhwq:1,2019-02-05T06:45:00Z,26.0257,-81.7332,1.6,32.3,1111122 
NERRS,ioos:station:NOAA.NERRS:rkblhwq:1,2019-02-05T07:45:00Z,26.0257,-81.7332,1.5,32.0,1111122 
NERRS,ioos:station:NOAA.NERRS:rkblhwq:1,2019-02-05T08:45:00Z,26.0257,-81.7332,1.36,31.8,1111122 
NERRS,ioos:station:NOAA.NERRS:rkblhwq:1,2019-02-05T09:45:00Z,26.0257,-81.7332,1.2,31.3,1111122 
NERRS,ioos:station:NOAA.NERRS:rkblhwq:1,2019-02-05T10:45:00Z,26.0257,-81.7332,1.05,31.3,1111122 
NERRS,ioos:station:NOAA.NERRS:rkblhwq:1,2019-02-05T11:45:00Z,26.0257,-81.7332,0.92,31.3,1111122 
NERRS,ioos:station:NOAA.NERRS:rkblhwq:1,2019-02-05T12:45:00Z,26.0257,-81.7332,0.8,30.8,1111122 
NERRS,ioos:station:NOAA.NERRS:rkblhwq:1,2019-02-05T13:45:00Z,26.0257,-81.7332,0.72,30.9,1111122 
NERRS,ioos:station:NOAA.NERRS:rkblhwq:1,2019-02-05T14:45:00Z,26.0257,-81.7332,0.78,29.9,1111122 
NERRS,ioos:station:NOAA.NERRS:rkblhwq:1,2019-02-05T16:45:00Z,26.0257,-81.7332,1.05,31.7,1111122 
NERRS,ioos:station:NOAA.NERRS:rkblhwq:1,2019-02-05T17:45:00Z,26.0257,-81.7332,1.22,32.0,1111122 
NERRS,ioos:station:NOAA.NERRS:rkblhwq:1,2019-02-05T18:45:00Z,26.0257,-81.7332,1.37,32.1,1111122 
NERRS,ioos:station:NOAA.NERRS:rkblhwq:1,2019-02-05T19:45:00Z,26.0257,-81.7332,1.46,32.2,1111122 
NERRS,ioos:station:NOAA.NERRS:rkblhwq:1,2019-02-05T20:45:00Z,26.0257,-81.7332,1.42,32.0,1111122 
NERRS,ioos:station:NOAA.NERRS:rkblhwq:1,2019-02-05T21:45:00Z,26.0257,-81.7332,1.31,32.1,1111122 
NERRS,ioos:station:NOAA.NERRS:rkblhwq:1,2019-02-05T23:45:00Z,26.0257,-81.7332,1.12,31.6,1111122 
NERRS,ioos:station:NOAA.NERRS:rkblhwq:1,2019-02-06T00:45:00Z,26.0257,-81.7332,1.05,31.6,1111122 
NERRS,ioos:station:NOAA.NERRS:rkblhwq:1,2019-02-06T01:45:00Z,26.0257,-81.7332,1.05,31.5,1111122 
NERRS,ioos:station:NOAA.NERRS:rkblhwq:1,2019-02-06T02:45:00Z,26.0257,-81.7332,1.15,31.7,1111122 
NERRS,ioos:station:NOAA.NERRS:rkblhwq:1,2019-02-06T03:45:00Z,26.0257,-81.7332,1.28,31.9,1111122 
NERRS,ioos:station:NOAA.NERRS:rkblhwq:1,2019-02-06T04:45:00Z,26.0257,-81.7332,1.42,32.2,1111122 
NERRS,ioos:station:NOAA.NERRS:rkblhwq:1,2019-02-06T05:45:00Z,26.0257,-81.7332,1.54,32.2,1111122 
NERRS,ioos:station:NOAA.NERRS:rkblhwq:1,2019-02-06T06:45:00Z,26.0257,-81.7332,1.61,32.5,1111122 
NERRS,ioos:station:NOAA.NERRS:rkblhwq:1,2019-02-06T07:45:00Z,26.0257,-81.7332,1.58,32.0,1111122 
NERRS,ioos:station:NOAA.NERRS:rkblhwq:1,2019-02-06T08:45:00Z,26.0257,-81.7332,1.47,31.8,1111122 
NERRS,ioos:station:NOAA.NERRS:rkblhwq:1,2019-02-06T09:45:00Z,26.0257,-81.7332,1.32,31.5,1111122 
NERRS,ioos:station:NOAA.NERRS:rkblhwq:1,2019-02-06T10:45:00Z,26.0257,-81.7332,1.17,31.4,1111122 
NERRS,ioos:station:NOAA.NERRS:rkblhwq:1,2019-02-06T11:45:00Z,26.0257,-81.7332,1.02,31.3,1111122 
NERRS,ioos:station:NOAA.NERRS:rkblhwq:1,2019-02-06T12:45:00Z,26.0257,-81.7332,0.9,31.4,1111122 
NERRS,ioos:station:NOAA.NERRS:rkblhwq:1,2019-02-06T13:45:00Z,26.0257,-81.7332,0.79,31.0,1111122 
NERRS,ioos:station:NOAA.NERRS:rkblhwq:1,2019-02-06T14:45:00Z,26.0257,-81.7332,0.75,30.5,1111122 
NERRS,ioos:station:NOAA.NERRS:rkblhwq:1,2019-02-06T15:45:00Z,26.0257,-81.7332,0.85,30.7,1111122 
NERRS,ioos:station:NOAA.NERRS:rkblhwq:1,2019-02-06T17:45:00Z,26.0257,-81.7332,1.13,31.9,1111122 
NERRS,ioos:station:NOAA.NERRS:rkblhwq:1,2019-02-06T18:45:00Z,26.0257,-81.7332,1.29,32.0,1111122 
NERRS,ioos:station:NOAA.NERRS:rkblhwq:1,2019-02-06T19:45:00Z,26.0257,-81.7332,1.42,32.1,1111122 
NERRS,ioos:station:NOAA.NERRS:rkblhwq:1,2019-02-06T21:45:00Z,26.0257,-81.7332,1.41,32.2,1111122 
NERRS,ioos:station:NOAA.NERRS:rkblhwq:1,2019-02-06T22:45:00Z,26.0257,-81.7332,1.29,32.0,1111122 
NERRS,ioos:station:NOAA.NERRS:rkblhwq:1,2019-02-07T00:45:00Z,26.0257,-81.7332,1.09,31.4,1111122 
NERRS,ioos:station:NOAA.NERRS:rkblhwq:1,2019-02-07T01:45:00Z,26.0257,-81.7332,1.04,31.6,1111122 
NERRS,ioos:station:NOAA.NERRS:rkblhwq:1,2019-02-07T02:45:00Z,26.0257,-81.7332,1.09,31.5,1111122 
NERRS,ioos:station:NOAA.NERRS:rkblhwq:1,2019-02-07T03:45:00Z,26.0257,-81.7332,1.21,31.8,1111122 
NERRS,ioos:station:NOAA.NERRS:rkblhwq:1,2019-02-07T04:45:00Z,26.0257,-81.7332,1.35,32.1,1111122 
NERRS,ioos:station:NOAA.NERRS:rkblhwq:1,2019-02-07T05:45:00Z,26.0257,-81.7332,1.47,32.2,1111122 
NERRS,ioos:station:NOAA.NERRS:rkblhwq:1,2019-02-07T06:45:00Z,26.0257,-81.7332,1.56,32.4,1111122 
NERRS,ioos:station:NOAA.NERRS:rkblhwq:1,2019-02-07T07:45:00Z,26.0257,-81.7332,1.59,32.6,1111122 
NERRS,ioos:station:NOAA.NERRS:rkblhwq:1,2019-02-07T08:45:00Z,26.0257,-81.7332,1.51,31.7,1111122 
NERRS,ioos:station:NOAA.NERRS:rkblhwq:1,2019-02-07T09:45:00Z,26.0257,-81.7332,1.38,31.7,1111122 
NERRS,ioos:station:NOAA.NERRS:rkblhwq:1,2019-02-07T10:45:00Z,26.0257,-81.7332,1.23,31.5,1111122 
NERRS,ioos:station:NOAA.NERRS:rkblhwq:1,2019-02-07T11:45:00Z,26.0257,-81.7332,1.09,31.3,1111122 
NERRS,ioos:station:NOAA.NERRS:rkblhwq:1,2019-02-07T12:45:00Z,26.0257,-81.7332,0.96,31.5,1111122 
NERRS,ioos:station:NOAA.NERRS:rkblhwq:1,2019-02-07T13:45:00Z,26.0257,-81.7332,0.84,31.1,1111122 
NERRS,ioos:station:NOAA.NERRS:rkblhwq:1,2019-02-07T15:45:00Z,26.0257,-81.7332,0.81,30.4,1111122 
NERRS,ioos:station:NOAA.NERRS:rkblhwq:1,2019-02-07T17:45:00Z,26.0257,-81.7332,1.07,31.9,1111122 
NERRS,ioos:station:NOAA.NERRS:rkblhwq:1,2019-02-07T18:45:00Z,26.0257,-81.7332,1.23,32.1,1111122 
NERRS,ioos:station:NOAA.NERRS:rkblhwq:1,2019-02-07T19:45:00Z,26.0257,-81.7332,1.38,32.3,1111122 
NERRS,ioos:station:NOAA.NERRS:rkblhwq:1,2019-02-07T20:45:00Z,26.0257,-81.7332,1.47,32.4,1111122 
NERRS,ioos:station:NOAA.NERRS:rkblhwq:1,2019-02-07T21:45:00Z,26.0257,-81.7332,1.43,32.3,1111122 
NERRS,ioos:station:NOAA.NERRS:rkblhwq:1,2019-02-07T23:45:00Z,26.0257,-81.7332,1.21,32.2,1111122 
NERRS,ioos:station:NOAA.NERRS:rkblhwq:1,2019-02-08T00:45:00Z,26.0257,-81.7332,1.12,31.6,1111122 
NERRS,ioos:station:NOAA.NERRS:rkblhwq:1,2019-02-08T01:45:00Z,26.0257,-81.7332,1.04,31.6,1111122 
NERRS,ioos:station:NOAA.NERRS:rkblhwq:1,2019-02-08T02:45:00Z,26.0257,-81.7332,1.02,31.7,1111122 
NERRS,ioos:station:NOAA.NERRS:rkblhwq:1,2019-02-08T03:45:00Z,26.0257,-81.7332,1.11,31.9,1111122 
NERRS,ioos:station:NOAA.NERRS:rkblhwq:1,2019-02-08T04:45:00Z,26.0257,-81.7332,1.25,32.1,1111122 
NERRS,ioos:station:NOAA.NERRS:rkblhwq:1,2019-02-08T05:45:00Z,26.0257,-81.7332,1.4,32.4,1111122 
NERRS,ioos:station:NOAA.NERRS:rkblhwq:1,2019-02-08T06:45:00Z,26.0257,-81.7332,1.52,32.5,1111122 
NERRS,ioos:station:NOAA.NERRS:rkblhwq:1,2019-02-08T07:45:00Z,26.0257,-81.7332,1.6,32.6,1111122 
NERRS,ioos:station:NOAA.NERRS:rkblhwq:1,2019-02-08T08:45:00Z,26.0257,-81.7332,1.59,32.6,1111122 
NERRS,ioos:station:NOAA.NERRS:rkblhwq:1,2019-02-08T09:45:00Z,26.0257,-81.7332,1.47,31.6,1111122 
NERRS,ioos:station:NOAA.NERRS:rkblhwq:1,2019-02-08T10:45:00Z,26.0257,-81.7332,1.34,31.8,1111122 
NERRS,ioos:station:NOAA.NERRS:rkblhwq:1,2019-02-08T11:45:00Z,26.0257,-81.7332,1.2,31.6,1111122 
NERRS,ioos:station:NOAA.NERRS:rkblhwq:1,2019-02-08T12:45:00Z,26.0257,-81.7332,1.06,31.6,1111122 
NERRS,ioos:station:NOAA.NERRS:rkblhwq:1,2019-02-08T14:45:00Z,26.0257,-81.7332,0.85,31.6,1111122 
NERRS,ioos:station:NOAA.NERRS:rkblhwq:1,2019-02-08T16:45:00Z,26.0257,-81.7332,0.93,31.5,1111122 
NERRS,ioos:station:NOAA.NERRS:rkblhwq:1,2019-02-08T17:45:00Z,26.0257,-81.7332,1.05,31.8,1111122 
NERRS,ioos:station:NOAA.NERRS:rkblhwq:1,2019-02-08T18:45:00Z,26.0257,-81.7332,1.2,32.3,1111122 
NERRS,ioos:station:NOAA.NERRS:rkblhwq:1,2019-02-08T19:45:00Z,26.0257,-81.7332,1.34,32.3,1111122 
NERRS,ioos:station:NOAA.NERRS:rkblhwq:1,2019-02-08T21:45:00Z,26.0257,-81.7332,1.41,32.4,1111122 
NERRS,ioos:station:NOAA.NERRS:rkblhwq:1,2019-02-08T23:45:00Z,26.0257,-81.7332,1.21,32.3,1111122 
NERRS,ioos:station:NOAA.NERRS:rkblhwq:1,2019-02-09T00:45:00Z,26.0257,-81.7332,1.1,31.8,1111122 
NERRS,ioos:station:NOAA.NERRS:rkblhwq:1,2019-02-09T01:45:00Z,26.0257,-81.7332,1.01,31.8,1111122 
NERRS,ioos:station:NOAA.NERRS:rkblhwq:1,2019-02-09T02:45:00Z,26.0257,-81.7332,0.94,31.5,1111122 
NERRS,ioos:station:NOAA.NERRS:rkblhwq:1,2019-02-09T03:45:00Z,26.0257,-81.7332,0.94,31.3,1111122 
NERRS,ioos:station:NOAA.NERRS:rkblhwq:1,2019-02-09T04:45:00Z,26.0257,-81.7332,1.04,31.8,1111122 
NERRS,ioos:station:NOAA.NERRS:rkblhwq:1,2019-02-09T05:45:00Z,26.0257,-81.7332,1.15,32.0,1111122 
NERRS,ioos:station:NOAA.NERRS:rkblhwq:1,2019-02-09T06:45:00Z,26.0257,-81.7332,1.28,32.4,1111122 
NERRS,ioos:station:NOAA.NERRS:rkblhwq:1,2019-02-09T07:45:00Z,26.0257,-81.7332,1.39,32.5,1111122 
NERRS,ioos:station:NOAA.NERRS:rkblhwq:1,2019-02-09T08:45:00Z,26.0257,-81.7332,1.45,32.6,1111122 
NERRS,ioos:station:NOAA.NERRS:rkblhwq:1,2019-02-09T09:45:00Z,26.0257,-81.7332,1.4,32.3,1111122 
NERRS,ioos:station:NOAA.NERRS:rkblhwq:1,2019-02-09T10:45:00Z,26.0257,-81.7332,1.29,32.0,1111122 
NERRS,ioos:station:NOAA.NERRS:rkblhwq:1,2019-02-09T11:45:00Z,26.0257,-81.7332,1.18,28.3,1111122 
NERRS,ioos:station:NOAA.NERRS:rkblhwq:1,2019-02-09T12:45:00Z,26.0257,-81.7332,1.07,31.7,1111122 
NERRS,ioos:station:NOAA.NERRS:rkblhwq:1,2019-02-09T13:45:00Z,26.0257,-81.7332,0.96,31.5,1111122 
NERRS,ioos:station:NOAA.NERRS:rkblhwq:1,2019-02-09T14:45:00Z,26.0257,-81.7332,0.87,31.5,1111122 
NERRS,ioos:station:NOAA.NERRS:rkblhwq:1,2019-02-09T15:45:00Z,26.0257,-81.7332,0.8,31.3,1111122 
NERRS,ioos:station:NOAA.NERRS:rkblhwq:1,2019-02-09T16:45:00Z,26.0257,-81.7332,0.85,31.2,1111122 
NERRS,ioos:station:NOAA.NERRS:rkblhwq:1,2019-02-09T18:45:00Z,26.0257,-81.7332,1.06,32.0,1111122 
NERRS,ioos:station:NOAA.NERRS:rkblhwq:1,2019-02-09T19:45:00Z,26.0257,-81.7332,1.2,32.1,1111122 
NERRS,ioos:station:NOAA.NERRS:rkblhwq:1,2019-02-09T20:45:00Z,26.0257,-81.7332,1.33,32.4,1111122 
NERRS,ioos:station:NOAA.NERRS:rkblhwq:1,2019-02-09T21:45:00Z,26.0257,-81.7332,1.4,32.5,1111122 
NERRS,ioos:station:NOAA.NERRS:rkblhwq:1,2019-02-09T23:45:00Z,26.0257,-81.7332,1.24,32.2,1111122 
NERRS,ioos:station:NOAA.NERRS:rkblhwq:1,2019-02-10T00:45:00Z,26.0257,-81.7332,1.16,31.7,1111122 
NERRS,ioos:station:NOAA.NERRS:rkblhwq:1,2019-02-10T01:45:00Z,26.0257,-81.7332,1.06,31.9,1111122 
NERRS,ioos:station:NOAA.NERRS:rkblhwq:1,2019-02-10T02:45:00Z,26.0257,-81.7332,0.97,31.8,1111122 
NERRS,ioos:station:NOAA.NERRS:rkblhwq:1,2019-02-10T03:45:00Z,26.0257,-81.7332,0.91,31.8,1111122 
NERRS,ioos:station:NOAA.NERRS:rkblhwq:1,2019-02-10T04:45:00Z,26.0257,-81.7332,0.93,31.6,1111122 
NERRS,ioos:station:NOAA.NERRS:rkblhwq:1,2019-02-10T05:45:00Z,26.0257,-81.7332,1.0,31.9,1111122 
NERRS,ioos:station:NOAA.NERRS:rkblhwq:1,2019-02-10T06:45:00Z,26.0257,-81.7332,1.1,32.0,1111122 
NERRS,ioos:station:NOAA.NERRS:rkblhwq:1,2019-02-10T07:45:00Z,26.0257,-81.7332,1.22,32.4,1111122 
NERRS,ioos:station:NOAA.NERRS:rkblhwq:1,2019-02-10T08:45:00Z,26.0257,-81.7332,1.34,32.6,1111122 
NERRS,ioos:station:NOAA.NERRS:rkblhwq:1,2019-02-10T09:45:00Z,26.0257,-81.7332,1.38,32.0,1111122 
NERRS,ioos:station:NOAA.NERRS:rkblhwq:1,2019-02-10T10:45:00Z,26.0257,-81.7332,1.31,32.3,1111122 
NERRS,ioos:station:NOAA.NERRS:rkblhwq:1,2019-02-10T11:45:00Z,26.0257,-81.7332,1.22,31.9,1111122 
NERRS,ioos:station:NOAA.NERRS:rkblhwq:1,2019-02-10T12:45:00Z,26.0257,-81.7332,1.13,32.0,1111122 
NERRS,ioos:station:NOAA.NERRS:rkblhwq:1,2019-02-10T13:45:00Z,26.0257,-81.7332,1.04,32.0,1111122 
NERRS,ioos:station:NOAA.NERRS:rkblhwq:1,2019-02-10T14:45:00Z,26.0257,-81.7332,0.95,32.0,1111122 
NERRS,ioos:station:NOAA.NERRS:rkblhwq:1,2019-02-10T16:45:00Z,26.0257,-81.7332,0.88,31.5,1111122 
NERRS,ioos:station:NOAA.NERRS:rkblhwq:1,2019-02-10T17:45:00Z,26.0257,-81.7332,0.97,31.6,1111122 
NERRS,ioos:station:NOAA.NERRS:rkblhwq:1,2019-02-10T19:45:00Z,26.0257,-81.7332,1.25,32.4,1111122 
NERRS,ioos:station:NOAA.NERRS:rkblhwq:1,2019-02-10T20:45:00Z,26.0257,-81.7332,1.4,32.5,1111122 
NERRS,ioos:station:NOAA.NERRS:rkblhwq:1,2019-02-10T21:45:00Z,26.0257,-81.7332,1.51,32.7,1111122 
NERRS,ioos:station:NOAA.NERRS:rkblhwq:1,2019-02-10T22:45:00Z,26.0257,-81.7332,1.55,32.9,1111122 
NERRS,ioos:station:NOAA.NERRS:rkblhwq:1,2019-02-11T00:45:00Z,26.0257,-81.7332,1.38,32.4,1111122 
NERRS,ioos:station:NOAA.NERRS:rkblhwq:1,2019-02-11T01:45:00Z,26.0257,-81.7332,1.27,31.9,1111122 
NERRS,ioos:station:NOAA.NERRS:rkblhwq:1,2019-02-11T02:45:00Z,26.0257,-81.7332,1.15,31.5,1111122 
NERRS,ioos:station:NOAA.NERRS:rkblhwq:1,2019-02-11T03:45:00Z,26.0257,-81.7332,1.05,31.9,1111122 
NERRS,ioos:station:NOAA.NERRS:rkblhwq:1,2019-02-11T04:45:00Z,26.0257,-81.7332,0.99,31.8,1111122 
NERRS,ioos:station:NOAA.NERRS:rkblhwq:1,2019-02-11T05:45:00Z,26.0257,-81.7332,1.03,31.8,1111122 
NERRS,ioos:station:NOAA.NERRS:rkblhwq:1,2019-02-11T06:45:00Z,26.0257,-81.7332,1.12,32.1,1111122 
NERRS,ioos:station:NOAA.NERRS:rkblhwq:1,2019-02-11T07:45:00Z,26.0257,-81.7332,1.23,32.1,1111122 
NERRS,ioos:station:NOAA.NERRS:rkblhwq:1,2019-02-11T09:45:00Z,26.0257,-81.7332,1.42,32.7,1111122 
NERRS,ioos:station:NOAA.NERRS:rkblhwq:1,2019-02-11T10:45:00Z,26.0257,-81.7332,1.47,32.8,1111122 
NERRS,ioos:station:NOAA.NERRS:rkblhwq:1,2019-02-11T11:45:00Z,26.0257,-81.7332,1.42,32.4,1111122 
NERRS,ioos:station:NOAA.NERRS:rkblhwq:1,2019-02-11T12:45:00Z,26.0257,-81.7332,1.32,31.7,1111122 
NERRS,ioos:station:NOAA.NERRS:rkblhwq:1,2019-02-11T13:45:00Z,26.0257,-81.7332,1.22,31.7,1111122 
NERRS,ioos:station:NOAA.NERRS:rkblhwq:1,2019-02-11T14:45:00Z,26.0257,-81.7332,1.12,31.7,1111122 
NERRS,ioos:station:NOAA.NERRS:rkblhwq:1,2019-02-11T15:45:00Z,26.0257,-81.7332,1.03,31.6,1111122 
NERRS,ioos:station:NOAA.NERRS:rkblhwq:1,2019-02-11T16:45:00Z,26.0257,-81.7332,0.99,31.6,1111122 
NERRS,ioos:station:NOAA.NERRS:rkblhwq:1,2019-02-11T17:45:00Z,26.0257,-81.7332,1.04,31.8,1111122 
NERRS,ioos:station:NOAA.NERRS:rkblhwq:1,2019-02-11T18:45:00Z,26.0257,-81.7332,1.14,32.0,1111122 
NERRS,ioos:station:NOAA.NERRS:rkblhwq:1,2019-02-11T20:45:00Z,26.0257,-81.7332,1.37,32.5,1111122 
NERRS,ioos:station:NOAA.NERRS:rkblhwq:1,2019-02-11T21:45:00Z,26.0257,-81.7332,1.48,32.7,1111122 
NERRS,ioos:station:NOAA.NERRS:rkblhwq:1,2019-02-11T22:45:00Z,26.0257,-81.7332,1.53,32.9,1111122 
NERRS,ioos:station:NOAA.NERRS:rkblhwq:1,2019-02-12T00:45:00Z,26.0257,-81.7332,1.39,32.2,1111122 
NERRS,ioos:station:NOAA.NERRS:rkblhwq:1,2019-02-12T01:45:00Z,26.0257,-81.7332,1.28,32.0,1111122 
NERRS,ioos:station:NOAA.NERRS:rkblhwq:1,2019-02-12T02:45:00Z,26.0257,-81.7332,1.16,31.8,1111122 
NERRS,ioos:station:NOAA.NERRS:rkblhwq:1,2019-02-12T03:45:00Z,26.0257,-81.7332,1.06,31.9,1111122 
NERRS,ioos:station:NOAA.NERRS:rkblhwq:1,2019-02-12T04:45:00Z,26.0257,-81.7332,0.98,31.9,1111122 
NERRS,ioos:station:NOAA.NERRS:rkblhwq:1,2019-02-12T05:45:00Z,26.0257,-81.7332,0.94,31.9,1111122 
NERRS,ioos:station:NOAA.NERRS:rkblhwq:1,2019-02-12T06:45:00Z,26.0257,-81.7332,0.99,31.9,1111122 
NERRS,ioos:station:NOAA.NERRS:rkblhwq:1,2019-02-12T07:45:00Z,26.0257,-81.7332,1.09,32.2,1111122 
NERRS,ioos:station:NOAA.NERRS:rkblhwq:1,2019-02-12T08:45:00Z,26.0257,-81.7332,1.19,32.3,1111122 
NERRS,ioos:station:NOAA.NERRS:rkblhwq:1,2019-02-12T09:45:00Z,26.0257,-81.7332,1.3,32.2,1111122 
NERRS,ioos:station:NOAA.NERRS:rkblhwq:1,2019-02-12T10:45:00Z,26.0257,-81.7332,1.41,32.7,1111122 